User: anonymous   Login
Location: Unspecified
(0.0000°N, 0.0000°E)
Time: 13:23:55
(UTC+01:00)
Language:

Cosmos 2263 Rocket - Orbit

View from above orbital plane
View from above orbital plane
View from above satellite
View from above satellite

Ground track
Ground track

The orbit data is extracted from the following two-line orbital elements,

1 22803U 93059B   18053.51546759 -.00000132 +00000-0 -41955-4 0  9996
2 22803 070.9896 081.9360 0017289 356.2047 003.8942 14.16787557263487
Epoch (UTC): 22 February 2018 12:22:16
Eccentricity: 0.0017289
inclination: 70.9896°
perigee height: 824 km
apogee height: 849 km
right ascension of ascending node: 81.9360°
argument of perigee: 356.2047°
revolutions per day: 14.16787557
mean anomaly at epoch: 3.8942°
orbit number at epoch: 26348

The dashed part of the orbit path shows where the satellite is in the earth's shadow,  

DLR